Home   Weather   Kirkenes   Past weeks
Flag for Norway

Past Weather in Kirkenes, Norway — Yesterday and Last 2 Weeks

Now
33 °F

Chilly.


Feels Like: 33 °F
Forecast: 38 / 32 °F
Wind: 1 mph from North

Location: Kirkenes Lufthavn

Current Time: May 22, 2019 at 1:35:38 am

Latest Report: May 22, 2019 at 12:00 am


Visibility: N/A

Pressure: 30.21 "Hg

Humidity: 89%

Dew Point: 31 °F

Location of KirkenesLocation

Past Weather in Kirkenes — Graph

°F

Kirkenes Temperature Yesterday

Maximum temperature yesterday: 39 °F (at 12:00 pm)
Minimum temperature yesterday: 34 °F (at 11:00 pm)
Average temperature yesterday: 37 °F

High & Low Weather Summary for the Past Weeks

 TemperatureHumidityPressure
High58 °F (May 10, 2:00 pm)99% (May 12, 5:00 am)30.33 "Hg (May 12, 5:00 am)
Low27 °F (May 7, 3:00 am)29% (May 10, 2:00 pm)29.41 "Hg (May 8, 12:00 pm)
Average40 °F73%30.09 "Hg
* Reported May 6 11:00 pm — May 21 11:00 pm, Kirkenes. Weather by CustomWeather, © 2019

Note: Actual official high and low records may vary slightly from our data, if they occured in-between our weather recording intervals... More about our weather records

Advertising

Kirkenes Weather History for the Previous 24 Hours

Scroll right to see more
 ConditionsComfort  
Time TempWeatherWind HumidityBarometerVisibility
11:00 pm
Tue, May 21
34 °FChilly.No wind86%30.21 "HgN/A
10:00 pm35 °FChilly.3 mph82%30.22 "HgN/A
9:00 pm36 °FChilly.3 mph65%30.22 "HgN/A
8:00 pm36 °FChilly.5 mph72%30.22 "HgN/A
7:00 pm37 °FChilly.5 mph68%30.21 "HgN/A
6:00 pm37 °FChilly.5 mph67%30.22 "HgN/A
5:00 pm38 °FChilly.5 mph68%30.22 "HgN/A
4:00 pm39 °FChilly.6 mph70%30.22 "HgN/A
3:00 pm38 °FChilly.6 mph78%30.22 "HgN/A
2:00 pm38 °FChilly.5 mph73%30.23 "HgN/A
1:00 pm39 °FChilly.6 mph71%30.23 "HgN/A
12:00 pm39 °FChilly.5 mph65%30.22 "HgN/A
11:00 am38 °FChilly.6 mph74%30.22 "HgN/A
10:00 am37 °FChilly.5 mph74%30.22 "HgN/A
9:00 am37 °FChilly.5 mph77%30.21 "HgN/A
8:00 am37 °FChilly.6 mph79%30.21 "HgN/A
7:00 am37 °FChilly.7 mph84%30.21 "HgN/A
6:00 am36 °FChilly.6 mph88%30.20 "HgN/A
5:00 am36 °FChilly.6 mph92%30.19 "HgN/A
4:00 am36 °FChilly.5 mph93%30.19 "HgN/A
3:00 am36 °FChilly.3 mph93%30.20 "HgN/A
2:00 am36 °FChilly.5 mph92%30.19 "HgN/A
1:00 am37 °FChilly.2 mph93%30.19 "HgN/A
Weather by CustomWeather, © 2019

See weather overview